Year,Month,Day,Hour,Minute,Value (Times are PST for temperature in C)
2012,08,25,00,00,10.80
2012,08,25,00,01,10.80
2012,08,25,00,02,10.80
2012,08,25,00,03,10.80
2012,08,25,00,04,10.80
2012,08,25,00,05,10.80
2012,08,25,00,06,10.80
2012,08,25,00,07,10.90
2012,08,25,00,08,10.90
2012,08,25,00,09,10.90
2012,08,25,00,10,10.90
2012,08,25,00,11,10.90
2012,08,25,00,12,10.90
2012,08,25,00,13,10.90
2012,08,25,00,14,10.90
2012,08,25,00,15,10.80
2012,08,25,00,16,10.80
2012,08,25,00,17,10.80
2012,08,25,00,18,10.80
2012,08,25,00,19,10.80
2012,08,25,00,20,10.80
2012,08,25,00,21,10.80
2012,08,25,00,22,10.80
2012,08,25,00,23,10.80
2012,08,25,00,24,10.80
2012,08,25,00,25,10.80
2012,08,25,00,26,10.70
2012,08,25,00,27,10.70
2012,08,25,00,28,10.70
2012,08,25,00,29,10.70
2012,08,25,00,30,10.70
2012,08,25,00,31,10.70
2012,08,25,00,32,10.70
2012,08,25,00,33,10.70
2012,08,25,00,34,10.70
2012,08,25,00,35,10.60
2012,08,25,00,36,10.60
2012,08,25,00,37,10.60
2012,08,25,00,38,10.60
2012,08,25,00,39,10.60
2012,08,25,00,40,10.60
2012,08,25,00,41,10.50
2012,08,25,00,42,10.50
2012,08,25,00,43,10.50
2012,08,25,00,44,10.50
2012,08,25,00,45,10.50
2012,08,25,00,46,10.50
2012,08,25,00,47,10.40
2012,08,25,00,48,10.40
2012,08,25,00,49,10.40
2012,08,25,00,50,10.40
2012,08,25,00,51,10.40
2012,08,25,00,52,10.40
2012,08,25,00,53,10.30
2012,08,25,00,54,10.30
2012,08,25,00,55,10.30
2012,08,25,00,56,10.30
2012,08,25,00,57,10.30
2012,08,25,00,58,10.30
2012,08,25,00,59,10.30
2012,08,25,01,00,10.30
2012,08,25,01,01,10.30
2012,08,25,01,02,10.30
2012,08,25,01,03,10.30
2012,08,25,01,04,10.30
2012,08,25,01,05,10.30
2012,08,25,01,06,10.30
2012,08,25,01,07,10.20
2012,08,25,01,08,10.20
2012,08,25,01,09,10.30
2012,08,25,01,10,10.30
2012,08,25,01,11,10.30
2012,08,25,01,12,10.30
2012,08,25,01,13,10.30
2012,08,25,01,14,10.30
2012,08,25,01,15,10.30
2012,08,25,01,16,10.30
2012,08,25,01,17,10.30
2012,08,25,01,18,10.30
2012,08,25,01,19,10.30
2012,08,25,01,20,10.30
2012,08,25,01,21,10.30
2012,08,25,01,22,10.30
2012,08,25,01,23,10.30
2012,08,25,01,24,10.30
2012,08,25,01,25,10.40
2012,08,25,01,26,10.40
2012,08,25,01,27,10.40
2012,08,25,01,28,10.40
2012,08,25,01,29,10.40
2012,08,25,01,30,10.40
2012,08,25,01,31,10.40
2012,08,25,01,32,10.40
2012,08,25,01,33,10.40
2012,08,25,01,34,10.40
2012,08,25,01,35,10.40
2012,08,25,01,36,10.30
2012,08,25,01,37,10.30
2012,08,25,01,38,10.30
2012,08,25,01,39,10.30
2012,08,25,01,40,10.30
2012,08,25,01,41,10.30
2012,08,25,01,42,10.30
2012,08,25,01,43,10.30
2012,08,25,01,44,10.30
2012,08,25,01,45,10.30
2012,08,25,01,46,10.20
2012,08,25,01,47,10.20
2012,08,25,01,48,10.20
2012,08,25,01,49,10.20
2012,08,25,01,50,10.20
2012,08,25,01,51,10.10
2012,08,25,01,52,10.10
2012,08,25,01,53,10.10
2012,08,25,01,54,10.10
2012,08,25,01,55,10.10
2012,08,25,01,56,10.00
2012,08,25,01,57,10.00
2012,08,25,01,58,10.00
2012,08,25,01,59,10.00
2012,08,25,02,00,9.90
2012,08,25,02,01,9.90
2012,08,25,02,02,9.90
2012,08,25,02,03,9.90
2012,08,25,02,04,9.90
2012,08,25,02,05,9.90
2012,08,25,02,06,9.90
2012,08,25,02,07,9.90
2012,08,25,02,08,9.90
2012,08,25,02,09,9.90
2012,08,25,02,10,9.90
2012,08,25,02,11,9.90
2012,08,25,02,12,9.90
2012,08,25,02,13,9.90
2012,08,25,02,14,9.90
2012,08,25,02,15,9.90
2012,08,25,02,16,9.80
2012,08,25,02,17,9.80
2012,08,25,02,18,9.80
2012,08,25,02,19,9.80
2012,08,25,02,20,9.80
2012,08,25,02,21,9.80
2012,08,25,02,22,9.80
2012,08,25,02,23,9.80
2012,08,25,02,24,9.80
2012,08,25,02,25,9.80
2012,08,25,02,26,9.80
2012,08,25,02,27,9.70
2012,08,25,02,28,9.70
2012,08,25,02,29,9.70
2012,08,25,02,30,9.70
2012,08,25,02,31,9.70
2012,08,25,02,32,9.70
2012,08,25,02,33,9.70
2012,08,25,02,34,9.70
2012,08,25,02,35,9.70
2012,08,25,02,36,9.70
2012,08,25,02,37,9.70
2012,08,25,02,38,9.60
2012,08,25,02,39,9.60
2012,08,25,02,40,9.60
2012,08,25,02,41,9.60
2012,08,25,02,42,9.60
2012,08,25,02,43,9.60
2012,08,25,02,44,9.60
2012,08,25,02,45,9.60
2012,08,25,02,46,9.60
2012,08,25,02,47,9.60
2012,08,25,02,48,9.60
2012,08,25,02,49,9.60
2012,08,25,02,50,9.60
2012,08,25,02,51,9.60
2012,08,25,02,52,9.60
2012,08,25,02,53,9.60
2012,08,25,02,54,9.60
2012,08,25,02,55,9.60
2012,08,25,02,56,9.60
2012,08,25,02,57,9.60
2012,08,25,02,58,9.60
2012,08,25,02,59,9.60
2012,08,25,03,00,9.60
2012,08,25,03,01,9.60
2012,08,25,03,02,9.60
2012,08,25,03,03,9.60
2012,08,25,03,04,9.60
2012,08,25,03,05,9.60
2012,08,25,03,06,9.60
2012,08,25,03,07,9.60
2012,08,25,03,08,9.60
2012,08,25,03,09,9.60
2012,08,25,03,10,9.60
2012,08,25,03,11,9.60
2012,08,25,03,12,9.60
2012,08,25,03,13,9.60
2012,08,25,03,14,9.60
2012,08,25,03,15,9.60
2012,08,25,03,16,9.60
2012,08,25,03,17,9.60
2012,08,25,03,18,9.60
2012,08,25,03,19,9.60
2012,08,25,03,20,9.60
2012,08,25,03,21,9.60
2012,08,25,03,22,9.60
2012,08,25,03,23,9.60
2012,08,25,03,24,9.60
2012,08,25,03,25,9.60
2012,08,25,03,26,9.60
2012,08,25,03,27,9.60
2012,08,25,03,28,9.60
2012,08,25,03,29,9.60
2012,08,25,03,30,9.60
2012,08,25,03,31,9.60
2012,08,25,03,32,9.60
2012,08,25,03,33,9.60
2012,08,25,03,34,9.70
2012,08,25,03,35,9.70
2012,08,25,03,36,9.70
2012,08,25,03,37,9.70
2012,08,25,03,38,9.70
2012,08,25,03,39,9.70
2012,08,25,03,40,9.70
2012,08,25,03,41,9.70
2012,08,25,03,42,9.70
2012,08,25,03,43,9.70
2012,08,25,03,44,9.70
2012,08,25,03,45,9.70
2012,08,25,03,46,9.70
2012,08,25,03,47,9.70
2012,08,25,03,48,9.70
2012,08,25,03,49,9.70
2012,08,25,03,50,9.70
2012,08,25,03,51,9.70
2012,08,25,03,52,9.70
2012,08,25,03,53,9.70
2012,08,25,03,54,9.70
2012,08,25,03,55,9.70
2012,08,25,03,56,9.70
2012,08,25,03,57,9.80
2012,08,25,03,58,9.80
2012,08,25,03,59,9.80
2012,08,25,04,00,9.80
2012,08,25,04,01,9.80
2012,08,25,04,02,9.80
2012,08,25,04,03,9.80
2012,08,25,04,04,9.80
2012,08,25,04,05,9.70
2012,08,25,04,06,9.70
2012,08,25,04,07,9.70
2012,08,25,04,08,9.70
2012,08,25,04,09,9.70
2012,08,25,04,10,9.70
2012,08,25,04,11,9.70
2012,08,25,04,12,9.70
2012,08,25,04,13,9.70
2012,08,25,04,14,9.70
2012,08,25,04,15,9.70
2012,08,25,04,16,9.70
2012,08,25,04,17,9.70
2012,08,25,04,18,9.70
2012,08,25,04,19,9.70
2012,08,25,04,20,9.70
2012,08,25,04,21,9.70
2012,08,25,04,22,9.70
2012,08,25,04,23,9.70
2012,08,25,04,24,9.60
2012,08,25,04,25,9.60
2012,08,25,04,26,9.60
2012,08,25,04,27,9.60
2012,08,25,04,28,9.60
2012,08,25,04,29,9.60
2012,08,25,04,30,9.60
2012,08,25,04,31,9.60
2012,08,25,04,32,9.60
2012,08,25,04,33,9.60
2012,08,25,04,34,9.60
2012,08,25,04,35,9.60
2012,08,25,04,36,9.60
2012,08,25,04,37,9.60
2012,08,25,04,38,9.70
2012,08,25,04,39,9.70
2012,08,25,04,40,9.70
2012,08,25,04,41,9.70
2012,08,25,04,42,9.70
2012,08,25,04,43,9.70
2012,08,25,04,44,9.70
2012,08,25,04,45,9.70
2012,08,25,04,46,9.70
2012,08,25,04,47,9.70
2012,08,25,04,48,9.70
2012,08,25,04,49,9.70
2012,08,25,04,50,9.70
2012,08,25,04,51,9.70
2012,08,25,04,52,9.70
2012,08,25,04,53,9.60
2012,08,25,04,54,9.60
2012,08,25,04,55,9.60
2012,08,25,04,56,9.60
2012,08,25,04,57,9.60
2012,08,25,04,58,9.60
2012,08,25,04,59,9.60
2012,08,25,05,00,9.60
2012,08,25,05,01,9.60
2012,08,25,05,02,9.60
2012,08,25,05,03,9.60
2012,08,25,05,04,9.60
2012,08,25,05,05,9.60
2012,08,25,05,06,9.60
2012,08,25,05,07,9.60
2012,08,25,05,08,9.60
2012,08,25,05,09,9.60
2012,08,25,05,10,9.60
2012,08,25,05,11,9.60
2012,08,25,05,12,9.60
2012,08,25,05,13,9.60
2012,08,25,05,14,9.60
2012,08,25,05,15,9.60
2012,08,25,05,16,9.60
2012,08,25,05,17,9.60
2012,08,25,05,18,9.50
2012,08,25,05,19,9.50
2012,08,25,05,20,9.50
2012,08,25,05,21,9.50
2012,08,25,05,22,9.50
2012,08,25,05,23,9.50
2012,08,25,05,24,9.50
2012,08,25,05,25,9.50
2012,08,25,05,26,9.40
2012,08,25,05,27,9.40
2012,08,25,05,28,9.40
2012,08,25,05,29,9.40
2012,08,25,05,30,9.40
2012,08,25,05,31,9.40
2012,08,25,05,32,9.40
2012,08,25,05,33,9.40
2012,08,25,05,34,9.40
2012,08,25,05,35,9.40
2012,08,25,05,36,9.40
2012,08,25,05,37,9.30
2012,08,25,05,38,9.30
2012,08,25,05,39,9.30
2012,08,25,05,40,9.30
2012,08,25,05,41,9.30
2012,08,25,05,42,9.30
2012,08,25,05,43,9.30
2012,08,25,05,44,9.30
2012,08,25,05,45,9.30
2012,08,25,05,46,9.30
2012,08,25,05,47,9.30
2012,08,25,05,48,9.30
2012,08,25,05,49,9.30
2012,08,25,05,50,9.30
2012,08,25,05,51,9.30
2012,08,25,05,52,9.30
2012,08,25,05,53,9.20
2012,08,25,05,54,9.20
2012,08,25,05,55,9.20
2012,08,25,05,56,9.20
2012,08,25,05,57,9.20
2012,08,25,05,58,9.20
2012,08,25,05,59,9.20
2012,08,25,06,00,9.20
2012,08,25,06,01,9.20
2012,08,25,06,02,9.20
2012,08,25,06,03,9.20
2012,08,25,06,04,9.10
2012,08,25,06,05,9.10
2012,08,25,06,06,9.10
2012,08,25,06,07,9.10
2012,08,25,06,08,9.10
2012,08,25,06,09,9.10
2012,08,25,06,10,9.10
2012,08,25,06,11,9.10
2012,08,25,06,12,9.10
2012,08,25,06,13,9.10
2012,08,25,06,14,9.10
2012,08,25,06,15,9.10
2012,08,25,06,16,9.10
2012,08,25,06,17,9.10
2012,08,25,06,18,9.10
2012,08,25,06,19,9.10
2012,08,25,06,20,9.00
2012,08,25,06,21,9.10
2012,08,25,06,22,9.00
2012,08,25,06,23,9.00
2012,08,25,06,24,9.00
2012,08,25,06,25,9.00
2012,08,25,06,26,9.00
2012,08,25,06,27,9.00
2012,08,25,06,28,9.00
2012,08,25,06,29,9.00
2012,08,25,06,30,8.90
2012,08,25,06,31,8.90
2012,08,25,06,32,8.90
2012,08,25,06,33,8.90
2012,08,25,06,34,8.90
2012,08,25,06,35,8.90
2012,08,25,06,36,8.90
2012,08,25,06,37,8.90
2012,08,25,06,38,8.90
2012,08,25,06,39,8.90
2012,08,25,06,40,8.90
2012,08,25,06,41,8.90
2012,08,25,06,42,8.90
2012,08,25,06,43,8.90
2012,08,25,06,44,8.90
2012,08,25,06,45,8.90
2012,08,25,06,46,8.90
2012,08,25,06,47,8.90
2012,08,25,06,48,8.90
2012,08,25,06,49,8.90
2012,08,25,06,50,8.90
2012,08,25,06,51,8.90
2012,08,25,06,52,8.90
2012,08,25,06,53,8.90
2012,08,25,06,54,8.90
2012,08,25,06,55,8.90
2012,08,25,06,56,8.90
2012,08,25,06,57,8.90
2012,08,25,06,58,8.90
2012,08,25,06,59,9.00
2012,08,25,07,00,9.00
2012,08,25,07,01,9.00
2012,08,25,07,02,9.00
2012,08,25,07,03,9.00
2012,08,25,07,04,9.00
2012,08,25,07,05,9.00
2012,08,25,07,06,9.10
2012,08,25,07,07,9.10
2012,08,25,07,08,9.10
2012,08,25,07,09,9.10
2012,08,25,07,10,9.10
2012,08,25,07,11,9.10
2012,08,25,07,12,9.10
2012,08,25,07,13,9.10
2012,08,25,07,14,9.10
2012,08,25,07,15,9.10
2012,08,25,07,16,9.10
2012,08,25,07,17,9.10
2012,08,25,07,18,9.10
2012,08,25,07,19,9.20
2012,08,25,07,20,9.20
2012,08,25,07,21,9.20
2012,08,25,07,22,9.30
2012,08,25,07,23,9.30
2012,08,25,07,24,9.30
2012,08,25,07,25,9.40
2012,08,25,07,26,9.50
2012,08,25,07,27,9.50
2012,08,25,07,28,9.60
2012,08,25,07,29,9.70
2012,08,25,07,30,9.80
2012,08,25,07,31,9.80
2012,08,25,07,32,9.90
2012,08,25,07,33,10.00
2012,08,25,07,34,10.00
2012,08,25,07,35,10.10
2012,08,25,07,36,10.20
2012,08,25,07,37,10.30
2012,08,25,07,38,10.40
2012,08,25,07,39,10.50
2012,08,25,07,40,10.60
2012,08,25,07,41,10.60
2012,08,25,07,42,10.70
2012,08,25,07,43,10.80
2012,08,25,07,44,10.90
2012,08,25,07,45,11.10
2012,08,25,07,46,11.20
2012,08,25,07,47,11.30
2012,08,25,07,48,11.40
2012,08,25,07,49,11.50
2012,08,25,07,50,11.60
2012,08,25,07,51,11.70
2012,08,25,07,52,11.80
2012,08,25,07,53,11.90
2012,08,25,07,54,12.00
2012,08,25,07,55,12.10
2012,08,25,07,56,12.20
2012,08,25,07,57,12.30
2012,08,25,07,58,12.30
2012,08,25,07,59,12.40
2012,08,25,08,00,12.50
2012,08,25,08,01,12.50
2012,08,25,08,02,12.60
2012,08,25,08,03,12.70
2012,08,25,08,04,12.70
2012,08,25,08,05,12.80
2012,08,25,08,06,12.80
2012,08,25,08,07,12.90
2012,08,25,08,08,12.90
2012,08,25,08,09,13.00
2012,08,25,08,10,13.10
2012,08,25,08,11,13.10
2012,08,25,08,12,13.20
2012,08,25,08,13,13.30
2012,08,25,08,14,13.30
2012,08,25,08,15,13.40
2012,08,25,08,16,13.50
2012,08,25,08,17,13.60
2012,08,25,08,18,13.70
2012,08,25,08,19,13.80
2012,08,25,08,20,13.80
2012,08,25,08,21,13.90
2012,08,25,08,22,14.00
2012,08,25,08,23,14.00
2012,08,25,08,24,14.10
2012,08,25,08,25,14.20
2012,08,25,08,26,14.20
2012,08,25,08,27,14.30
2012,08,25,08,28,14.30
2012,08,25,08,29,14.30
2012,08,25,08,30,14.40
2012,08,25,08,31,14.40
2012,08,25,08,32,14.50
2012,08,25,08,33,14.60
2012,08,25,08,34,14.60
2012,08,25,08,35,14.70
2012,08,25,08,36,14.70
2012,08,25,08,37,14.80
2012,08,25,08,38,14.80
2012,08,25,08,39,14.90
2012,08,25,08,40,15.00
2012,08,25,08,41,15.00
2012,08,25,08,42,15.00
2012,08,25,08,43,15.00
2012,08,25,08,44,15.00
2012,08,25,08,45,15.00
2012,08,25,08,46,15.00
2012,08,25,08,47,15.00
2012,08,25,08,48,15.00
2012,08,25,08,49,15.00
2012,08,25,08,50,15.00
2012,08,25,08,51,15.00
2012,08,25,08,52,15.00
2012,08,25,08,53,15.00
2012,08,25,08,54,15.00
2012,08,25,08,55,15.00
2012,08,25,08,56,15.00
2012,08,25,08,57,15.00
2012,08,25,08,58,15.00
2012,08,25,08,59,15.10
2012,08,25,09,00,15.20
2012,08,25,09,01,15.20
2012,08,25,09,02,15.30
2012,08,25,09,03,15.40
2012,08,25,09,04,15.50
2012,08,25,09,05,15.60
2012,08,25,09,06,15.60
2012,08,25,09,07,15.70
2012,08,25,09,08,15.70
2012,08,25,09,09,15.80
2012,08,25,09,10,15.90
2012,08,25,09,11,15.90
2012,08,25,09,12,16.00
2012,08,25,09,13,16.10
2012,08,25,09,14,16.20
2012,08,25,09,15,16.20
2012,08,25,09,16,16.30
2012,08,25,09,17,16.30
2012,08,25,09,18,16.40
2012,08,25,09,19,16.50
2012,08,25,09,20,16.50
2012,08,25,09,21,16.60
2012,08,25,09,22,16.60
2012,08,25,09,23,16.60
2012,08,25,09,24,16.60
2012,08,25,09,25,16.50
2012,08,25,09,26,16.50
2012,08,25,09,27,16.50
2012,08,25,09,28,16.50
2012,08,25,09,29,16.50
2012,08,25,09,30,16.50
2012,08,25,09,31,16.50
2012,08,25,09,32,16.60
2012,08,25,09,33,16.60
2012,08,25,09,34,16.60
2012,08,25,09,35,16.70
2012,08,25,09,36,16.60
2012,08,25,09,37,16.70
2012,08,25,09,38,16.70
2012,08,25,09,39,16.60
2012,08,25,09,40,16.60
2012,08,25,09,41,16.60
2012,08,25,09,42,16.60
2012,08,25,09,43,16.60
2012,08,25,09,44,16.60
2012,08,25,09,45,16.60
2012,08,25,09,46,16.60
2012,08,25,09,47,16.60
2012,08,25,09,48,16.70
2012,08,25,09,49,16.70
2012,08,25,09,50,16.80
2012,08,25,09,51,16.80
2012,08,25,09,52,16.90
2012,08,25,09,53,16.90
2012,08,25,09,54,17.00
2012,08,25,09,55,17.00
2012,08,25,09,56,17.00
2012,08,25,09,57,17.10
2012,08,25,09,58,17.10
2012,08,25,09,59,17.20
2012,08,25,10,00,17.20
2012,08,25,10,01,17.20
2012,08,25,10,02,17.30
2012,08,25,10,03,17.40
2012,08,25,10,04,17.50
2012,08,25,10,05,17.50
2012,08,25,10,06,17.50
2012,08,25,10,07,17.50
2012,08,25,10,08,17.50
2012,08,25,10,09,17.60
2012,08,25,10,10,17.60
2012,08,25,10,11,17.60
2012,08,25,10,12,17.60
2012,08,25,10,13,17.60
2012,08,25,10,14,17.60
2012,08,25,10,15,17.60
2012,08,25,10,16,17.70
2012,08,25,10,17,17.70
2012,08,25,10,18,17.80
2012,08,25,10,19,17.90
2012,08,25,10,20,18.00
2012,08,25,10,21,18.00
2012,08,25,10,22,18.10
2012,08,25,10,23,18.20
2012,08,25,10,24,18.20
2012,08,25,10,25,18.20
2012,08,25,10,26,18.20
2012,08,25,10,27,18.30
2012,08,25,10,28,18.30
2012,08,25,10,29,18.30
2012,08,25,10,30,18.30
2012,08,25,10,31,18.30
2012,08,25,10,32,18.30
2012,08,25,10,33,18.30
2012,08,25,10,34,18.30
2012,08,25,10,35,18.20
2012,08,25,10,36,18.20
2012,08,25,10,37,18.20
2012,08,25,10,38,18.20
2012,08,25,10,39,18.20
2012,08,25,10,40,18.20
2012,08,25,10,41,18.20
2012,08,25,10,42,18.20
2012,08,25,10,43,18.30
2012,08,25,10,44,18.30
2012,08,25,10,45,18.30
2012,08,25,10,46,18.30
2012,08,25,10,47,18.30
2012,08,25,10,48,18.30
2012,08,25,10,49,18.40
2012,08,25,10,50,18.50
2012,08,25,10,51,18.50
2012,08,25,10,52,18.60
2012,08,25,10,53,18.60
2012,08,25,10,54,18.70
2012,08,25,10,55,18.70
2012,08,25,10,56,18.80
2012,08,25,10,57,18.90
2012,08,25,10,58,18.90
2012,08,25,10,59,19.00
2012,08,25,11,00,19.10
2012,08,25,11,01,19.10
2012,08,25,11,02,19.20
2012,08,25,11,03,19.20
2012,08,25,11,04,19.30
2012,08,25,11,05,19.30
2012,08,25,11,06,19.30
2012,08,25,11,07,19.40
2012,08,25,11,08,19.40
2012,08,25,11,09,19.40
2012,08,25,11,10,19.40
2012,08,25,11,11,19.50
2012,08,25,11,12,19.50
2012,08,25,11,13,19.40
2012,08,25,11,14,19.40
2012,08,25,11,15,19.50
2012,08,25,11,16,19.50
2012,08,25,11,17,19.60
2012,08,25,11,18,19.60
2012,08,25,11,19,19.60
2012,08,25,11,20,19.60
2012,08,25,11,21,19.70
2012,08,25,11,22,19.60
2012,08,25,11,23,19.70
2012,08,25,11,24,19.70
2012,08,25,11,25,19.70
2012,08,25,11,26,19.70
2012,08,25,11,27,19.80
2012,08,25,11,28,19.80
2012,08,25,11,29,19.90
2012,08,25,11,30,19.90
2012,08,25,11,31,19.90
2012,08,25,11,32,20.00
2012,08,25,11,33,20.10
2012,08,25,11,34,20.10
2012,08,25,11,35,20.10
2012,08,25,11,36,20.10
2012,08,25,11,37,20.20
2012,08,25,11,38,20.10
2012,08,25,11,39,20.10
2012,08,25,11,40,20.10
2012,08,25,11,41,20.20
2012,08,25,11,42,20.20
2012,08,25,11,43,20.30
2012,08,25,11,44,20.30
2012,08,25,11,45,20.40
2012,08,25,11,46,20.40
2012,08,25,11,47,20.30
2012,08,25,11,48,20.40
2012,08,25,11,49,20.40
2012,08,25,11,50,20.50
2012,08,25,11,51,20.60
2012,08,25,11,52,20.60
2012,08,25,11,53,20.60
2012,08,25,11,54,20.70
2012,08,25,11,55,20.80
2012,08,25,11,56,20.80
2012,08,25,11,57,20.80
2012,08,25,11,58,20.80
2012,08,25,11,59,20.80
2012,08,25,12,00,20.80
2012,08,25,12,01,20.90
2012,08,25,12,02,21.00
2012,08,25,12,03,21.20
2012,08,25,12,04,21.30
2012,08,25,12,05,21.40
2012,08,25,12,06,21.50
2012,08,25,12,07,21.50
2012,08,25,12,08,21.60
2012,08,25,12,09,21.50
2012,08,25,12,10,21.40
2012,08,25,12,11,21.30
2012,08,25,12,12,21.20
2012,08,25,12,13,21.10
2012,08,25,12,14,21.00
2012,08,25,12,15,21.00
2012,08,25,12,16,21.10
2012,08,25,12,17,21.20
2012,08,25,12,18,21.30
2012,08,25,12,19,21.30
2012,08,25,12,20,21.30
2012,08,25,12,21,21.30
2012,08,25,12,22,21.30
2012,08,25,12,23,21.20
2012,08,25,12,24,21.20
2012,08,25,12,25,21.20
2012,08,25,12,26,21.20
2012,08,25,12,27,21.20
2012,08,25,12,28,21.20
2012,08,25,12,29,21.20
2012,08,25,12,30,21.20
2012,08,25,12,31,21.10
2012,08,25,12,32,21.00
2012,08,25,12,33,20.90
2012,08,25,12,34,21.00
2012,08,25,12,35,21.00
2012,08,25,12,36,21.10
2012,08,25,12,37,21.10
2012,08,25,12,38,21.10
2012,08,25,12,39,21.10
2012,08,25,12,40,21.10
2012,08,25,12,41,21.20
2012,08,25,12,42,21.20
2012,08,25,12,43,21.20
2012,08,25,12,44,21.30
2012,08,25,12,45,21.30
2012,08,25,12,46,21.40
2012,08,25,12,47,21.40
2012,08,25,12,48,21.50
2012,08,25,12,49,21.40
2012,08,25,12,50,21.50
2012,08,25,12,51,21.50
2012,08,25,12,52,21.50
2012,08,25,12,53,21.40
2012,08,25,12,54,21.40
2012,08,25,12,55,21.40
2012,08,25,12,56,21.40
2012,08,25,12,57,21.40
2012,08,25,12,58,21.40
2012,08,25,12,59,21.30
2012,08,25,13,00,21.20
2012,08,25,13,01,21.20
2012,08,25,13,02,21.10
2012,08,25,13,03,21.10
2012,08,25,13,04,21.20
2012,08,25,13,05,21.20
2012,08,25,13,06,21.20
2012,08,25,13,07,21.30
2012,08,25,13,08,21.30
2012,08,25,13,09,21.40
2012,08,25,13,10,21.50
2012,08,25,13,11,21.60
2012,08,25,13,12,21.70
2012,08,25,13,13,21.80
2012,08,25,13,14,21.80
2012,08,25,13,15,21.80
2012,08,25,13,16,21.70
2012,08,25,13,17,21.80
2012,08,25,13,18,21.80
2012,08,25,13,19,21.80
2012,08,25,13,20,21.80
2012,08,25,13,21,21.90
2012,08,25,13,22,21.90
2012,08,25,13,23,22.00
2012,08,25,13,24,22.10
2012,08,25,13,25,22.10
2012,08,25,13,26,22.10
2012,08,25,13,27,22.10
2012,08,25,13,28,22.10
2012,08,25,13,29,22.00
2012,08,25,13,30,22.00
2012,08,25,13,31,22.00
2012,08,25,13,32,22.10
2012,08,25,13,33,22.10
2012,08,25,13,34,22.10
2012,08,25,13,35,22.10
2012,08,25,13,36,22.10
2012,08,25,13,37,22.10
2012,08,25,13,38,22.10
2012,08,25,13,39,22.20
2012,08,25,13,40,22.20
2012,08,25,13,41,22.30
2012,08,25,13,42,22.40
2012,08,25,13,43,22.50
2012,08,25,13,44,22.60
2012,08,25,13,45,22.70
2012,08,25,13,46,22.70
2012,08,25,13,47,22.70
2012,08,25,13,48,22.70
2012,08,25,13,49,22.70
2012,08,25,13,50,22.60
2012,08,25,13,51,22.60
2012,08,25,13,52,22.60
2012,08,25,13,53,22.60
2012,08,25,13,54,22.70
2012,08,25,13,55,22.70
2012,08,25,13,56,22.70
2012,08,25,13,57,22.60
2012,08,25,13,58,22.60
2012,08,25,13,59,22.70
2012,08,25,14,00,22.70
2012,08,25,14,01,22.70
2012,08,25,14,02,22.70
2012,08,25,14,03,22.80
2012,08,25,14,04,22.80
2012,08,25,14,05,22.80
2012,08,25,14,06,22.80
2012,08,25,14,07,22.80
2012,08,25,14,08,22.80
2012,08,25,14,09,22.80
2012,08,25,14,10,22.80
2012,08,25,14,11,22.90
2012,08,25,14,12,23.10
2012,08,25,14,13,23.20
2012,08,25,14,14,23.30
2012,08,25,14,15,23.40
2012,08,25,14,16,23.50
2012,08,25,14,17,23.60
2012,08,25,14,18,23.70
2012,08,25,14,19,23.70
2012,08,25,14,20,23.80
2012,08,25,14,21,23.90
2012,08,25,14,22,23.90
2012,08,25,14,23,24.00
2012,08,25,14,24,23.90
2012,08,25,14,25,23.80
2012,08,25,14,26,23.70
2012,08,25,14,27,23.70
2012,08,25,14,28,23.60
2012,08,25,14,29,23.70
2012,08,25,14,30,23.70
2012,08,25,14,31,23.80
2012,08,25,14,32,23.80
2012,08,25,14,33,23.80
2012,08,25,14,34,23.70
2012,08,25,14,35,23.60
2012,08,25,14,36,23.50
2012,08,25,14,37,23.40
2012,08,25,14,38,23.30
2012,08,25,14,39,23.30
2012,08,25,14,40,23.30
2012,08,25,14,41,23.30
2012,08,25,14,42,23.40
2012,08,25,14,43,23.50
2012,08,25,14,44,23.60
2012,08,25,14,45,23.60
2012,08,25,14,46,23.60
2012,08,25,14,47,23.60
2012,08,25,14,48,23.50
2012,08,25,14,49,23.50
2012,08,25,14,50,23.60
2012,08,25,14,51,23.70
2012,08,25,14,52,23.80
2012,08,25,14,53,23.90
2012,08,25,14,54,24.00
2012,08,25,14,55,24.00
2012,08,25,14,56,23.90
2012,08,25,14,57,24.00
2012,08,25,14,58,24.00
2012,08,25,14,59,24.10
2012,08,25,15,00,24.10
2012,08,25,15,01,24.20
2012,08,25,15,02,24.20
2012,08,25,15,03,24.10
2012,08,25,15,04,24.00
2012,08,25,15,05,23.90
2012,08,25,15,06,23.80
2012,08,25,15,07,23.80
2012,08,25,15,08,23.80
2012,08,25,15,09,23.80
2012,08,25,15,10,23.90
2012,08,25,15,11,23.90
2012,08,25,15,12,23.90
2012,08,25,15,13,23.90
2012,08,25,15,14,23.90
2012,08,25,15,15,23.90
2012,08,25,15,16,23.90
2012,08,25,15,17,23.80
2012,08,25,15,18,23.70
2012,08,25,15,19,23.60
2012,08,25,15,20,23.50
2012,08,25,15,21,23.40
2012,08,25,15,22,23.40
2012,08,25,15,23,23.50
2012,08,25,15,24,23.50
2012,08,25,15,25,23.60
2012,08,25,15,26,23.60
2012,08,25,15,27,23.70
2012,08,25,15,28,23.70
2012,08,25,15,29,23.70
2012,08,25,15,30,23.60
2012,08,25,15,31,23.50
2012,08,25,15,32,23.50
2012,08,25,15,33,23.50
2012,08,25,15,34,23.60
2012,08,25,15,35,23.70
2012,08,25,15,36,23.80
2012,08,25,15,37,23.90
2012,08,25,15,38,23.90
2012,08,25,15,39,23.90
2012,08,25,15,40,23.90
2012,08,25,15,41,23.90
2012,08,25,15,42,23.90
2012,08,25,15,43,23.90
2012,08,25,15,44,23.90
2012,08,25,15,45,23.80
2012,08,25,15,46,23.80
2012,08,25,15,47,23.80
2012,08,25,15,48,23.80
2012,08,25,15,49,23.80
2012,08,25,15,50,23.70
2012,08,25,15,51,23.70
2012,08,25,15,52,23.70
2012,08,25,15,53,23.70
2012,08,25,15,54,23.70
2012,08,25,15,55,23.70
2012,08,25,15,56,23.60
2012,08,25,15,57,23.60
2012,08,25,15,58,23.60
2012,08,25,15,59,23.60
2012,08,25,16,00,23.70
2012,08,25,16,01,23.70
2012,08,25,16,02,23.70
2012,08,25,16,03,23.70
2012,08,25,16,04,23.80
2012,08,25,16,05,23.90
2012,08,25,16,06,23.90
2012,08,25,16,07,23.90
2012,08,25,16,08,23.90
2012,08,25,16,09,24.00
2012,08,25,16,10,24.00
2012,08,25,16,11,24.00
2012,08,25,16,12,24.00
2012,08,25,16,13,24.10
2012,08,25,16,14,24.20
2012,08,25,16,15,24.10
2012,08,25,16,16,24.00
2012,08,25,16,17,23.90
2012,08,25,16,18,23.80
2012,08,25,16,19,23.80
2012,08,25,16,20,23.80
2012,08,25,16,21,23.80
2012,08,25,16,22,23.80
2012,08,25,16,23,23.70
2012,08,25,16,24,23.70
2012,08,25,16,25,23.70
2012,08,25,16,26,23.70
2012,08,25,16,27,23.60
2012,08,25,16,28,23.50
2012,08,25,16,29,23.30
2012,08,25,16,30,23.20
2012,08,25,16,31,23.20
2012,08,25,16,32,23.20
2012,08,25,16,33,23.20
2012,08,25,16,34,23.20
2012,08,25,16,35,23.20
2012,08,25,16,36,23.20
2012,08,25,16,37,23.10
2012,08,25,16,38,23.10
2012,08,25,16,39,23.10
2012,08,25,16,40,23.00
2012,08,25,16,41,22.90
2012,08,25,16,42,22.90
2012,08,25,16,43,22.80
2012,08,25,16,44,22.90
2012,08,25,16,45,22.90
2012,08,25,16,46,23.00
2012,08,25,16,47,22.90
2012,08,25,16,48,22.90
2012,08,25,16,49,22.90
2012,08,25,16,50,22.80
2012,08,25,16,51,22.80
2012,08,25,16,52,22.80
2012,08,25,16,53,22.70
2012,08,25,16,54,22.70
2012,08,25,16,55,22.60
2012,08,25,16,56,22.60
2012,08,25,16,57,22.50
2012,08,25,16,58,22.50
2012,08,25,16,59,22.60
2012,08,25,17,00,22.60
2012,08,25,17,01,22.60
2012,08,25,17,02,22.50
2012,08,25,17,03,22.50
2012,08,25,17,04,22.60
2012,08,25,17,05,22.60
2012,08,25,17,06,22.60
2012,08,25,17,07,22.70
2012,08,25,17,08,22.70
2012,08,25,17,09,22.70
2012,08,25,17,10,22.70
2012,08,25,17,11,22.80
2012,08,25,17,12,22.80
2012,08,25,17,13,22.70
2012,08,25,17,14,22.70
2012,08,25,17,15,22.80
2012,08,25,17,16,22.90
2012,08,25,17,17,22.80
2012,08,25,17,18,22.70
2012,08,25,17,19,22.70
2012,08,25,17,20,22.70
2012,08,25,17,21,22.70
2012,08,25,17,22,22.60
2012,08,25,17,23,22.60
2012,08,25,17,24,22.70
2012,08,25,17,25,22.60
2012,08,25,17,26,22.70
2012,08,25,17,27,22.70
2012,08,25,17,28,22.70
2012,08,25,17,29,22.70
2012,08,25,17,30,22.70
2012,08,25,17,31,22.60
2012,08,25,17,32,22.60
2012,08,25,17,33,22.50